Location: Newark
(35.2672°N, 80.7344°W)
Time: 11:26:28
(UTC+00:00)

Transit 2A - Visible Passes

Search period start: 20 January 2020 00:00
Search period end: 30 January 2020 00:00
Orbit: 601 x 957 km, 66.7° (Epoch: 20 January)

Date Brightness Start Highest point End Pass type
(mag) Time Alt. Az. Time Alt. Az. Time Alt. Az.
20 Jan 7.3 11:02:12 10° N 11:06:40 36° ENE 11:11:31 10° SE visible
21 Jan 7.9 10:28:32 10° N 10:32:26 25° NE 10:36:42 10° ESE visible
22 Jan 8.3 09:55:45 12° NNE 09:58:10 17° NE 10:01:28 10° E visible
22 Jan 6.1 11:36:43 10° NW 11:41:32 57° WSW 11:46:51 10° S visible
23 Jan 8.6 09:23:02 11° NE 09:23:48 11° NE 09:25:26 10° ENE visible
23 Jan 5.9 11:03:33 17° NNW 11:07:26 87° WSW 11:12:53 10° SSE visible
23 Jan 7.8 23:59:57 10° SE 00:00:01 10° SE 00:00:01 10° SE visible
24 Jan 8.5 01:40:24 10° SW 01:40:34 11° SW 01:40:34 11° SW visible
24 Jan 6.3 10:30:56 30° N 10:33:19 61° ENE 10:38:39 10° SE visible
25 Jan 7.2 01:06:04 10° SSW 01:08:20 29° SW 01:08:20 29° SW visible
25 Jan 7.0 09:58:23 37° NE 09:59:09 40° ENE 10:04:11 10° SE visible
25 Jan 7.2 11:38:56 13° WNW 11:42:06 22° WSW 11:46:13 10° SSW visible
26 Jan 5.6 00:32:02 10° SSW 00:36:04 60° SE 00:36:04 60° SE visible
26 Jan 7.9 09:25:57 25° ENE 09:25:57 25° ENE 09:29:26 10° ESE visible
26 Jan 6.7 11:06:29 28° WNW 11:08:05 33° WSW 11:12:58 10° S visible
26 Jan 6.1 23:58:15 10° S 00:02:25 38° ESE 00:03:47 30° ENE visible
27 Jan 8.3 01:42:40 10° W 01:44:20 16° WNW 01:44:20 16° WNW visible
27 Jan 8.8 08:53:35 12° E 08:53:35 12° E 08:54:19 10° E visible
27 Jan 6.1 10:34:08 52° WSW 10:34:08 52° WSW 10:39:20 10° S visible
27 Jan 6.8 23:24:51 10° SSE 23:28:25 23° ESE 23:31:27 12° ENE visible
28 Jan 7.3 01:07:37 10° WSW 01:11:23 27° WNW 01:11:59 26° NW visible
28 Jan 6.9 10:01:51 41° SSE 10:01:51 41° SSE 10:05:26 10° SSE visible
29 Jan 6.6 00:32:57 10° SW 00:37:10 42° WNW 00:39:35 22° N visible
29 Jan 8.2 09:29:38 19° SE 09:29:38 19° SE 09:31:16 10° SE visible
29 Jan 8.0 11:10:11 11° SW 11:10:11 11° SW 11:10:55 10° SW visible
